|
|
Asteroid 2012 BA102
(Preview)
Orbital elements:
2012 BA102 Earth MOID = 0.0019 AU
Epoch 2012 Mar. 14.0 TT = JDT 2456000.5 MPC
M 38.93773 (2000.0) P Q
n 0.51002343 Peri. 142.72613 +0.00671641 -0.99942773
a 1.5514673 Node 306.86520 +0.90718975 +0.02003674
e 0.3975225 Incl. 2.37492 +0.42066810 -0.02725322
P 1.93 H 26.5...
|
Blobrana
|
0
|
|
|
|
|
Asteroid 2012 BL86
(Preview)
Orbital elements:
2012 BL86 Earth MOID = 0.0269 AU
Epoch 2012 Mar. 14.0 TT = JDT 2456000.5 MPC
M 15.75908 (2000.0) P Q
n 0.24232516 Peri. 348.04224 -0.22821617 -0.96814550
a 2.5480252 Node 115.07819 +0.90238200 -0.25005778
e 0.6054871 Incl. 6.53065 +0.36554632 +0.01286069
P 4.07 H 24.0 G...
|
Blobrana
|
0
|
|
|
|
|
Asteroid 2012 BK86
(Preview)
Orbital elements:
2012 BK86 Earth MOID = 0.4094 AU
Epoch 2012 Mar. 14.0 TT = JDT 2456000.5 MPC
M 348.45942 (2000.0) P Q
n 0.40835070 Peri. 61.87628 -0.92998903 +0.05345461
a 1.7993425 Node 119.04647 -0.12510657 -0.97633316
e 0.2866781 Incl. 24.58243 +0.34564252 -0.20956185
P 2.41 H 21.9...
|
Blobrana
|
0
|
|
|
|
|
Asteroid 2012 BG86
(Preview)
Orbital elements:
2012 BG86 Earth MOID = 0.1885 AU
Epoch 2012 Mar. 14.0 TT = JDT 2456000.5 MPC
M 69.95809 (2000.0) P Q
n 0.69065769 Peri. 33.60076 +0.91327247 +0.05834955
a 1.2675375 Node 316.75130 -0.35408308 +0.60300983
e 0.7525383 Incl. 36.04320 +0.20139160 +0.79559693
P 1.43 H 21.3 G...
|
Blobrana
|
0
|
|
|
|
|
Asteroid 2012 BB102
(Preview)
Orbital elements:
2012 BB102 Earth MOID = 0.1509 AU
Epoch 2012 Mar. 14.0 TT = JDT 2456000.5 MPC
M 18.95613 (2000.0) P Q
n 0.59743004 Peri. 185.03759 -0.76698044 -0.58788131
a 1.3961905 Node 315.43023 +0.60078019 -0.51712662
e 0.1863738 Incl. 21.49720 +0.22539780 -0.62207365
P 1.65 H 24....
|
Blobrana
|
0
|
|
|
|
|
Asteroid 2012 BE86
(Preview)
Orbital elements:
2012 BE86 Earth MOID = 0.5025 AU
Epoch 2012 Mar. 14.0 TT = JDT 2456000.5 MPC
M 45.20555 (2000.0) P Q
n 0.24503445 Peri. 255.71175 +0.71642575 -0.63841521
a 2.5292084 Node 142.70069 +0.66816717 +0.74388976
e 0.4927781 Incl. 27.66474 -0.20071567 +0.19762097
P 4.02 H 19.8...
|
Blobrana
|
0
|
|
|
|
|
Asteroid 1999 AU23
(Preview)
Orbital elements:
1999 AU23 Earth MOID = 0.4015 AU
Epoch 2012 Mar. 14.0 TT = JDT 2456000.5 MPC
M 64.86394 (2000.0) P Q
n 0.31005872 Peri. 117.88760 +0.57088223 -0.75620622
a 2.1619223 Node 293.66335 +0.57531625 +0.64629884
e 0.4114035 Incl. 20.43302 +0.58575139 +0.10222506
P 3.18 H 17.7...
|
Blobrana
|
0
|
|
|
|
|
Asteroid 2012 BH86
(Preview)
Orbital elements:
2012 BH86 Earth MOID = 0.0031 AU
Epoch 2012 Mar. 14.0 TT = JDT 2456000.5 MPC
M 339.22203 (2000.0) P Q
n 0.66207503 Peri. 249.22568 -0.74382403 +0.66776569
a 1.3037608 Node 332.64495 -0.58779919 -0.67388391
e 0.3893077 Incl. 3.56153 -0.31814765 -0.31617947
P 1.49 H 24.4...
|
Blobrana
|
0
|
|
|
|
|
Asteroid 2012 BL77
(Preview)
Orbital elements:
2012 BL77 Earth MOID = 0.1194 AU
Epoch 2012 Mar. 14.0 TT = JDT 2456000.5 MPC
M 310.84795 (2000.0) P Q
n 1.08286016 Peri. 147.43499 +0.06336662 +0.95122794
a 0.9391922 Node 124.43067 -0.97598847 +0.12223825
e 0.5134860 Incl. 21.47137 -0.20840150 -0.28323704
P 0.91 H 23....
|
Blobrana
|
1
|
|
|
|
|
Asteroid 2012 BX85
(Preview)
Orbital elements:
2012 BX85
Epoch 2012 Jan. 14.0 TT = JDT 2455940.5 MPC
M 286.99245 (2000.0) P Q
n 0.00339720 Peri. 259.33806 -0.83884231 +0.54415674
a 43.8250250 Node 313.62693 -0.49077140 -0.76817866
e 0.1024533 Incl. 1.21870 -0.23555680 -0.33733512
P 290 H 5.5 G 0.15
From 14 observa...
|
Blobrana
|
0
|
|
|
|
|
Asteroid 2012 BK77
(Preview)
Orbital elements:
2012 BK77 Earth MOID = 0.1473 AU
Epoch 2012 Mar. 14.0 TT = JDT 2456000.5 MPC
M 14.89858 (2000.0) P Q
n 0.34481005 Peri. 110.06045 -0.60594184 -0.79491981
a 2.0141081 Node 17.34288 +0.68611118 -0.54169985
e 0.4561928 Incl. 5.89397 +0.40259897 -0.27324672
P 2.86 H 22.2 G 0...
|
Blobrana
|
1
|
|
|
|
|
Asteroid 2012 BO77
(Preview)
Orbital elements:
2012 BO77 Earth MOID = 0.0662 AU
Epoch 2012 Mar. 14.0 TT = JDT 2456000.5 MPC
M 317.92208 (2000.0) P Q
n 1.07474124 Peri. 326.93388 +0.06487201 +0.98340291
a 0.9439162 Node 306.22207 -0.86390881 -0.02963932
e 0.5566659 Incl. 12.12434 -0.49945290 +0.17899785
P 0.92 H 22....
|
Blobrana
|
1
|
|
|
|
|
Asteroid 2012 BN77
(Preview)
Orbital elements:
2012 BN77 Earth MOID = 0.2356 AU
Epoch 2012 Mar. 14.0 TT = JDT 2456000.5 MPC
M 38.63994 (2000.0) P Q
n 0.22632972 Peri. 50.61243 +0.73676381 -0.67599293
a 2.6667051 Node 351.88164 +0.58427305 +0.64735674
e 0.5455545 Incl. 5.92708 +0.34030000 +0.35208353
P 4.35 H 19.3 G 0...
|
Blobrana
|
0
|
|
|
|
|
Asteroid 2012 BM77
(Preview)
Orbital elements:
2012 BM77 Earth MOID = 0.0285 AU
Epoch 2012 Mar. 14.0 TT = JDT 2456000.5 MPC
M 10.97382 (2000.0) P Q
n 0.25792929 Peri. 358.05169 -0.62730003 -0.76054710
a 2.4441936 Node 130.75262 +0.71747183 -0.64804486
e 0.5855085 Incl. 12.77586 +0.30286770 -0.04007454
P 3.82 H 23.8...
|
Blobrana
|
0
|
|
|
|
|
Asteroid 2012 BE77
(Preview)
Orbital elements:
2012 BE77 Earth MOID = 0.2347 AU
Epoch 2012 Mar. 14.0 TT = JDT 2456000.5 MPC
M 358.44786 (2000.0) P Q
n 0.33510336 Peri. 218.92283 -0.98235855 -0.17713423
a 2.0528168 Node 310.76661 +0.18518060 -0.87670393
e 0.4050538 Incl. 4.54071 +0.02607337 -0.44722890
P 2.94 H 22.5...
|
Blobrana
|
0
|
|
|